Home > Weather > Olympia > Past weeks

Flag for U.S.A. Weather for the Past 2 Weeks in Olympia, Washington, U.S.A.

Now
46 °F

Mostly cloudy.


Feels Like: 41 °F
Forecast: 45 / 49 °F
Wind: 10 mph from South

Location: Olympia Airport

Current Time: Feb 13, 2016 at 10:23:04 AM

Latest Report: Feb 13, 2016 at 9:54 AM


Visibility: 10 mi

Pressure: 30.28 "Hg

Humidity: 86%

Dew point: 42 °F

Location of OlympiaLocation

Historic Weather in Olympia — Graph

°F

Olympia Temperature Yesterday

Maximum temperature yesterday: 57 °F (at 2:54 PM)
Minimum temperature yesterday: 44 °F (at 9:54 PM)
Average temperature yesterday: 51 °F

High & Low Weather Summary for the Past Weeks

 TemperatureHumidityPressure
High64 °F (Feb 9, 2:54 PM)100% (Feb 2, 2:54 AM)30.55 "Hg (Feb 2, 2:54 AM)
Low28 °F (Feb 2, 6:54 AM)49% (Feb 7, 2:54 PM)29.62 "Hg (Jan 29, 8:54 AM)
Average43 °F88%30.20 "Hg
* Reported Jan 29 8:54 AM — Feb 13 8:54 AM, Olympia, Weather by CustomWeather, © 2016

Note: Actual official high and low records may vary slightly from our data, if they occured in-between our weather recording intervals... More about our weather records

Advertising

Olympia Weather History for the Previous 24 Hours

 ConditionsComfort  
Time TempWeatherWind HumidityBarometerVisibility
8:54 AM
Sat, Feb 13
43 °FPassing clouds.3 mph93%30.30 "Hg10 mi
7:54 AM43 °FPassing clouds.5 mph93%30.29 "Hg10 mi
6:54 AM42 °FClear.9 mph92%30.29 "Hg10 mi
5:54 AM43 °FLight rain. Fog.7 mph93%30.30 "Hg6 mi
4:54 AM44 °FRain. Fog.6 mph93%30.29 "Hg3 mi
3:54 AM44 °FPartly cloudy.9 mph89%30.27 "Hg10 mi
2:54 AM43 °FMostly cloudy.6 mph93%30.25 "Hg10 mi
1:54 AM44 °FPassing clouds.9 mph89%30.23 "Hg10 mi
12:54 AM45 °FLight rain. Mostly cloudy.7 mph90%30.23 "Hg8 mi
11:54 PM
Fri, Feb 12
45 °FPassing clouds.6 mph86%30.21 "Hg10 mi
10:54 PM45 °FPassing clouds.5 mph86%30.21 "Hg10 mi
9:54 PM44 °FClear.8 mph89%30.20 "Hg10 mi
8:54 PM46 °FPassing clouds.6 mph89%30.19 "Hg10 mi
7:54 PM46 °FPassing clouds.5 mph89%30.19 "Hg10 mi
6:54 PM47 °FPassing clouds.5 mph90%30.18 "Hg10 mi
5:54 PM49 °FPartly cloudy.No wind84%30.17 "Hg10 mi
4:54 PM53 °FBroken clouds.5 mph69%30.15 "Hg10 mi
3:54 PM57 °FPassing clouds.8 mph58%30.14 "Hg10 mi
2:54 PM57 °FScattered clouds.7 mph62%30.14 "Hg10 mi
1:54 PM55 °FBroken clouds.7 mph72%30.14 "Hg10 mi
12:54 PM55 °FBroken clouds.8 mph72%30.14 "Hg10 mi
11:54 AM55 °FPassing clouds.8 mph80%30.15 "Hg10 mi
10:54 AM52 °FPartly sunny.8 mph89%30.13 "Hg10 mi
Weather by CustomWeather, © 2016

See weather overviewHow to use our weather pages